Location: Bad Harzburg
(51.8827°N, 10.5616°E)
Time: 10:13:41
(UTC+00:00)

Daily predictions for brighter satellites

Satellite Brightness Start Highest point End
(mag) Time Altitude Azimuth Time Altitude Azimuth Time Altitude Azimuth
Cosmos 2100 Rocket 4.5 19:35:13 10° SSW 19:41:27 69° WNW 19:47:48 10° N
NOSS 3-4 (A) 4.2 19:36:26 10° NW 19:42:44 58° NE 19:50:11 10° ESE
Meteor 1-27 4.2 19:37:13 10° S 19:42:50 78° E 19:48:26 10° NNE
SL-16 R/B 2.6 19:37:23 10° NNW 19:43:00 57° NE 19:48:34 10° SE
NOSS 3-4 (C) 4.2 19:37:03 10° NW 19:43:23 58° NE 19:50:51 10° ESE
Okean 1 Rocket 4.4 19:45:11 10° SSW 19:49:24 44° WNW 19:53:41 10° N
Cosmos 1544 Rocket 4.4 19:46:44 10° SSE 19:50:35 32° E 19:54:28 10° NNE
Cosmos 2084 Rocket 4.5 19:46:54 10° WNW 19:50:48 38° SW 19:54:44 10° SSE
Cosmos 2233 Rocket 4.0 19:45:46 10° S 19:51:54 69° E 19:58:01 10° NNE
ATLAS 2AS CENTAUR R/B 4.1 19:46:23 10° W 19:52:55 43° NNW 19:59:23 10° NE
SKYMED 3 4.3 19:52:38 10° NNE 19:56:37 85° E 20:00:35 10° SSW
CZ-2C R/B 4.0 19:55:59 10° ESE 19:57:48 16° ENE 19:59:36 10° NNE
Cosmos 1980 Rocket 3.7 19:53:14 10° NW 19:58:18 34° WSW 20:03:20 10° S
COSMOS 2406 3.6 19:53:43 10° S 19:59:06 44° ESE 20:04:32 10° NE
Okean-O 2.6 19:55:56 10° SSE 20:00:19 86° ENE 20:04:44 10° NNW
Cosmos 1782 2.8 19:57:02 10° SSW 20:00:32 71° W 20:04:04 10° N
CZ-4 R/B 3.4 19:57:57 10° SSW 20:00:55 23° W 20:03:54 10° NW
Ariane Rocket 3.6 19:58:12 10° SE 20:02:58 43° ENE 20:07:45 10° N
Meteor 1-20 Rocket 4.4 19:58:33 10° N 20:04:06 63° ENE 20:09:44 10° SSE
Cosmos 1933 4.1 20:02:26 10° SSE 20:05:50 32° E 20:09:15 10° NNE
Cosmos 1758 Rocket 3.6 20:01:36 10° N 20:06:00 68° ENE 20:10:24 10° SSE
SPOT 3 Rocket 3.8 20:01:22 10° SE 20:06:23 57° ENE 20:11:25 10° N
Spot 2 Rocket 3.6 20:03:18 10° S 20:08:19 77° WSW 20:13:23 10° NNW
DNEPR-1 R/B 4.4 20:04:09 10° NW 20:09:27 74° NE 20:15:40 11° SE
Cosmos 1725 Rocket 4.5 20:04:26 10° SSW 20:10:40 67° WNW 20:16:54 10° N
Cosmos 2333 Rocket 2.3 20:05:09 10° NNW 20:10:53 77° ENE 20:16:16 12° SE
ERS-1 Rocket 4.4 20:09:59 10° SSW 20:14:34 36° W 20:19:12 10° NNW
Tsikada Rocket 4.3 20:11:35 10° NNW 20:17:42 67° W 20:23:47 10° S
Cosmos 2360 Rocket 2.5 20:19:08 10° NNW 20:24:47 61° NE 20:29:39 14° SE
USA 245 4.3 20:19:44 10° SSE 20:25:37 85° ENE 20:31:09 10° NNW
Cosmos 1461 2.8 20:23:25 10° SSW 20:26:59 47° SE 20:30:32 10° NE
CZ-4B R/B 3.4 20:25:36 13° SSE 20:29:50 72° ENE 20:34:41 10° NNW
Cosmos 1602 Rocket 3.6 20:25:54 10° N 20:30:13 69° ENE 20:33:50 15° SSE
CZ-4C R/B 3.4 20:26:32 10° W 20:30:56 43° NNW 20:36:39 10° NE
Cosmos 1992 Rocket 4.1 20:26:27 10° SSW 20:31:41 84° WNW 20:36:55 10° NNE
YAOGAN 11 4.2 20:28:52 10° NNE 20:33:19 81° WNW 20:37:46 10° SSW
Cosmos 1777 Rocket 4.1 20:31:48 10° NNW 20:37:04 71° ENE 20:41:09 17° SE
ISS -3.8 20:34:16 10° W 20:37:37 88° S 20:40:59 10° E
Cosmos 2219 Rocket 2.7 20:32:38 10° NNW 20:38:10 51° NE 20:42:48 15° SE
Meteor 1-25 Rocket 4.2 20:33:08 10° NNW 20:38:51 86° ENE 20:43:46 14° SSE
Cosmos 220 Rocket 4.0 20:36:18 10° S 20:40:14 51° ESE 20:44:13 10° NNE
Cosmos 1437 Rocket 2.4 20:36:51 10° S 20:40:24 82° ESE 20:44:01 10° NNE
USA 290 3.5 20:39:45 20° SE 20:40:31 22° ESE 20:43:00 10° NE
SL-08 R/B 4.3 20:38:51 10° N 20:43:31 49° WNW 20:48:05 10° SW
Cosmos 1503 Rocket 4.1 20:40:23 10° NNW 20:45:34 65° ENE 20:49:23 18° SE
Cosmos 1626 Rocket 4.4 20:42:19 10° NNW 20:46:30 46° W 20:50:42 10° SSW
DEBRIS 3.6 20:44:02 10° WSW 20:47:23 70° S 20:58:17 10° E
Cosmos 2098 Rocket 3.2 20:44:22 14° S 20:48:19 56° E 20:52:22 10° NNE
Cosmos 1076 Rocket 4.1 20:44:48 10° N 20:48:52 42° ENE 20:51:27 20° SE
NOSS 3-3 (A) 4.1 20:44:57 10° SW 20:50:16 74° NW 20:56:48 10° NE
Terra 4.2 20:49:12 10° SW 20:52:27 18° W 20:55:45 10° NW
RESURS DK-1 4.3 20:50:54 10° N 20:53:56 20° NE 20:56:58 10° E
Cosmos 2151 3.6 20:50:33 10° NNW 20:54:32 49° W 20:58:09 12° SSW
Cosmos 2322 Rocket 2.2 20:50:55 10° NNW 20:56:37 82° WSW 21:00:46 19° SSE
Cosmos 1486 Rocket 4.1 20:51:25 10° NNW 20:56:41 76° WSW 21:00:35 19° SSE
IRS-1C Rocket 4.2 20:53:40 15° S 20:58:04 73° WSW 21:03:22 10° NNW
Cosmos 1513 Rocket 4.5 20:51:52 10° S 20:58:05 89° ESE 21:04:15 10° N
Cosmos 1464 Rocket 4.0 20:53:51 13° S 20:59:14 66° E 21:05:23 10° NNE
Cosmos 1354 Rocket 4.2 20:54:39 10° NNW 20:59:52 61° ENE 21:03:26 20° SE
Cosmos 909 Rocket 4.4 20:54:24 10° SW 21:00:39 70° NW 21:07:21 10° NE
Cosmos 2082 Rocket 3.5 20:56:51 10° WSW 21:02:18 43° NW 21:07:45 10° NNE
USA 306 2.3 21:01:32 10° W 21:04:04 40° N 21:04:50 24° NE
Meteor 2-10 4.2 20:59:13 10° NNW 21:05:00 89° WSW 21:09:14 19° S
Cosmos 1606 Rocket 3.5 21:03:17 19° S 21:06:14 64° E 21:10:30 10° NNE
Cosmos 1766 3.8 21:09:00 10° N 21:11:57 32° ENE 21:13:02 25° ESE
CZ-4B R/B 3.9 21:09:42 14° SSW 21:12:10 32° W 21:15:19 10° NNW
USA 186 4.4 21:12:55 10° WSW 21:13:42 11° W 21:14:30 10° WNW
Cosmos 2237 Rocket 4.1 21:09:53 10° NNW 21:14:23 23° NE 21:18:50 10° E
Cosmos 1428 Rocket 4.5 21:08:24 10° N 21:14:40 88° ENE 21:19:10 20° S
Cosmos 1726 Rocket 3.5 21:12:34 25° SSE 21:14:42 55° E 21:18:41 10° NNE
Okean O Rocket 3.8 21:12:57 10° SW 21:16:02 19° W 21:19:10 10° NW
Cosmos 540 Rocket 3.8 21:13:16 21° SSE 21:16:19 45° ESE 21:21:13 10° NE
Cosmos 1092 Rocket 4.3 21:10:25 10° N 21:16:28 55° ENE 21:20:29 22° SE
Aureole 1 Rocket 4.2 21:12:32 10° NNW 21:18:05 60° ENE 21:22:39 20° SE
Cosmos 1805 3.8 21:17:28 10° NNW 21:20:33 39° W 21:22:21 20° SSW
NOSS 3-3 (C) 4.4 21:16:55 10° WSW 21:22:19 61° NW 21:28:56 10° NE
COSMOS 2428 3.5 21:20:33 10° NNW 21:26:00 44° NE 21:30:13 16° ESE
SL-16 R/B 3.5 21:21:53 10° NW 21:26:48 31° WSW 21:30:55 14° SSW
Okean 1-7 Rocket 4.1 21:23:18 10° NNW 21:27:40 54° W 21:30:35 20° SSW
CZ-2C R/B 3.5 21:27:14 21° SW 21:28:21 29° W 21:30:50 10° NW
Geosat 4.3 21:27:44 10° NE 21:32:34 46° ESE 21:35:08 25° S
NOSS 3-4 (A) 4.3 21:27:16 10° NW 21:33:44 50° SW 21:38:38 22° S
NOSS 3-4 (C) 4.3 21:27:54 10° NW 21:34:22 51° SW 21:39:17 22° S
Cosmos-2242 3.1 21:34:03 31° SSE 21:35:41 52° E 21:39:43 10° NNE
Cosmos 2034 Rocket 4.0 21:32:54 19° S 21:37:39 83° E 21:44:01 10° NNE
Ariane Rocket 4.3 21:38:06 13° SSW 21:41:57 33° W 21:46:31 10° NNW
COSMOS 2406 4.5 21:38:00 10° WSW 21:43:27 43° NW 21:48:55 10° NNE
USA 234 4.3 21:41:36 10° ENE 21:46:30 22° SE 21:47:10 22° SE
TSX-5 3.4 21:46:06 10° NNW 21:49:12 64° NE 21:50:06 41° ESE
Cosmos 2333 Rocket 3.9 21:50:17 10° NW 21:54:35 22° WSW 21:58:17 12° SSW
Helios 1B rocket 1.9 21:55:11 45° SSE 21:56:09 81° ENE 21:59:40 10° NNW
Cosmos 2279 Rocket 4.4 21:53:17 26° SSE 21:56:30 50° E 22:02:31 10° NNE
Cosmos 1763 Rocket 3.5 21:53:12 16° SSW 21:57:26 82° WNW 22:02:44 10° NNE
Cosmos 1470 2.9 21:54:24 10° N 21:57:34 43° ENE 21:58:12 38° ESE
Cosmos 1536 2.5 21:54:24 10° N 21:58:06 87° W 21:59:12 44° S
Okean 1 4.1 21:56:18 20° SW 21:58:25 40° WNW 22:01:51 10° N
Cosmos 1898 Rocket 3.7 21:54:11 10° NNW 21:59:21 66° ENE 22:02:03 28° SE
Cosmos 2221 3.5 21:59:07 27° ESE 22:00:07 31° E 22:03:48 10° NNE
Cosmos 1707 1.8 21:59:51 67° SW 22:00:09 78° WNW 22:02:59 10° N
Cosmos 1634 Rocket 4.0 21:57:45 27° S 22:01:18 73° E 22:07:31 10° NNE
CSL-04 DEB 4.0 22:01:35 46° SSE 22:02:34 82° ENE 22:06:14 10° NNW
CZ-2C R/B 4.2 21:58:37 10° NNE 22:02:53 42° E 22:04:14 33° SE
Cosmos 1953 Rocket 4.2 21:58:45 10° NNW 22:02:56 47° W 22:04:56 27° SSW
Cosmos 1833 4.2 21:57:59 14° SSW 22:02:58 85° WNW 22:08:39 10° NNE
Cosmos 2297 Rocket 3.7 22:01:44 18° ESE 22:02:59 19° E 22:06:51 10° ENE
Cosmos 44 3.6 21:59:15 10° NW 22:04:35 64° SW 22:06:56 33° SSE
Cosmos 2360 Rocket 3.5 22:03:38 10° NW 22:08:25 29° WSW 22:11:23 18° SSW
Cosmos 2322 3.7 22:05:06 10° NNW 22:10:50 87° ENE 22:13:46 30° SSE
Meteor 2-6 Rocket 4.4 22:08:15 29° S 22:11:19 67° E 22:17:14 10° NNE
ISS -3.8 22:11:03 10° W 22:14:18 59° SSW 22:14:18 59° SSW
Cosmos 2026 Rocket 4.5 22:08:10 10° NNW 22:14:23 56° W 22:18:17 23° SSW
USA 290 4.1 22:12:10 13° WSW 22:14:30 28° WNW 22:17:18 10° N
Cosmos 2058 Rocket 3.1 22:14:25 32° SSW 22:16:22 73° WNW 22:20:43 10° N
GP-B 4.3 22:13:36 10° NNE 22:17:28 30° E 22:18:52 25° ESE
CZ-4C R/B 4.5 22:16:01 10° WNW 22:20:37 28° N 22:26:21 10° ENE
SAR-Lupe-2 4.1 22:20:01 37° ESE 22:20:40 43° ENE 22:23:50 10° N
Helios 1A 3.2 22:16:51 10° N 22:20:43 58° WNW 22:22:30 29° SW
Cosmos 2219 Rocket 3.2 22:16:52 10° NW 22:21:57 35° WSW 22:24:29 24° SSW
Cosmos 2266 Rocket 4.3 22:17:42 10° N 22:23:39 56° ENE 22:26:50 27° SE
Cosmos 1975 2.6 22:20:57 10° N 22:24:39 72° E 22:25:24 52° SE
KORONAS-FOTON 3.7 22:25:06 47° SW 22:25:51 63° WNW 22:29:14 10° N
Cosmos 841 Rocket 3.7 22:28:15 35° SSE 22:30:06 54° ESE 22:35:13 10° NNE
RESURS DK-1 2.2 22:27:44 10° NW 22:31:43 70° WSW 22:32:35 50° S
ARIANE 5 R/B 2.6 22:32:16 41° S 22:33:47 81° WSW 22:38:17 10° NNW
Meteor 1-19 Rocket 4.4 22:32:11 33° SSE 22:34:46 63° E 22:40:39 10° NNE
ALOS 2 2.5 22:33:58 42° SSE 22:35:27 88° ENE 22:39:53 10° NNW
Cosmos 2322 Rocket 4.2 22:36:27 10° WNW 22:39:46 16° W 22:42:34 11° SW
Cosmos 1271 Rocket 2.7 22:46:13 49° WSW 22:46:49 60° WNW 22:50:11 10° N
SL-16 R/B 3.9 22:41:57 10° NNW 22:46:55 29° NE 22:51:51 10° E
Cosmos 1842 3.4 22:47:39 40° WSW 22:48:07 43° WNW 22:51:10 10° N
Lacrosse 4 Rocket 3.0 22:51:57 20° ESE 22:51:57 20° ESE 22:54:43 10° ENE
Spot 4 4.1 22:51:57 37° SSW 22:53:37 56° W 22:58:20 10° NNW
Meteor 2-9 Rocket 4.3 22:48:20 10° NNW 22:53:38 61° W 22:55:56 34° SSW
Cosmos 1766 Rocket 4.2 22:49:39 10° N 22:53:48 45° ENE 22:55:19 31° ESE
PSLV R/B 3.5 22:50:26 10° NNE 22:54:44 75° ESE 22:55:59 45° S
Cosmos 2237 Rocket 2.2 22:53:35 10° NNW 22:59:19 81° ENE 23:02:17 30° SE
CZ-2C R/B 2.8 22:58:58 30° SE 23:01:32 63° ENE 23:06:40 10° N
BREEZE-M DEB (TANK) 3.9 22:48:22 10° WSW 23:02:09 75° SSE 23:05:45 10° ENE
Cosmos 1980 3.6 22:57:46 10° NNW 23:03:28 89° WSW 23:06:13 32° SSE
ARGOS Delta rocket 4.1 22:58:59 10° N 23:04:08 79° WNW 23:06:31 34° SSW
Cosmos 858 Rocket 4.4 22:59:35 10° NNW 23:04:46 75° WSW 23:06:42 39° S
Cosmos 1937 Rocket 3.8 23:02:49 10° NNW 23:07:48 51° WSW 23:09:26 37° SSW
COSMOS 2428 3.3 23:04:55 10° NW 23:10:15 43° WSW 23:12:10 32° SSW
Cosmos 2227 Rocket 3.4 23:11:04 23° SE 23:12:50 28° ESE 23:17:33 10° NE
NOSS 0 Rocket 4.2 23:06:59 10° NW 23:12:58 54° WSW 23:15:27 33° S
Meteor 1-11 Rocket 3.8 23:07:50 10° NNW 23:13:28 65° W 23:15:45 35° SSW
Meteor 2-4 Rocket 4.1 23:11:49 32° SSE 23:13:58 51° E 23:19:20 10° NNE
MetOp-A 3.8 23:18:10 40° S 23:19:52 71° WSW 23:24:32 10° NNW
Meteor 1-10 Rocket 4.4 23:17:23 32° SSW 23:20:17 77° WNW 23:26:16 10° N
Cosmos 2263 Rocket 3.7 23:20:54 18° SE 23:22:48 21° ESE 23:26:54 10° NE
Cosmos 1238 Rocket 2.9 23:25:54 50° SSE 23:26:51 71° E 23:31:13 10° NNE
Cosmos 1812 Rocket 4.1 23:25:18 34° SW 23:26:53 52° WNW 23:31:13 10° N
USA 234 3.2 23:23:54 10° ENE 23:30:24 63° SE 23:34:29 24° SW
SeaSat 1 2.6 23:28:37 24° SE 23:31:35 70° NE 23:36:29 10° NNW
CZ-2C R/B 3.3 23:27:15 10° NNE 23:33:02 89° WNW 23:35:48 33° SSW
Cosmos 1758 4.5 23:30:46 10° N 23:34:03 32° ENE 23:35:23 24° ESE
ACS3 Solar Sail 2.6 23:28:41 10° NNE 23:34:16 40° E 23:37:20 24° SSE
Meteor 1-27 Rocket 3.7 23:32:34 34° SSW 23:35:15 86° WNW 23:41:02 10° NNE
Cosmos 2221 3.8 23:35:23 23° WSW 23:37:06 31° WNW 23:40:52 10° N
ATLAS 2AS CENTAUR R/B 3.8 23:31:29 10° NW 23:37:57 44° NNE 23:44:25 10° E
Meteor 2-20 Rocket 4.2 23:37:28 34° S 23:40:04 89° ESE 23:45:50 10° N
BlueWalker 3 3.1 23:41:17 26° ESE 23:41:17 26° ESE 23:43:23 10° E
Cosmos 2297 Rocket 2.2 23:43:29 31° SSW 23:46:17 86° WNW 23:51:59 10° NNE
Cosmos 1125 Rocket 4.2 23:41:19 10° NNW 23:46:30 51° ENE 23:50:47 15° SE
Okean 3 Rocket 3.9 23:42:53 10° N 23:47:22 61° ENE 23:49:21 31° SE
Landsat 5 3.3 23:46:30 10° NNE 23:50:37 74° ESE 23:51:40 47° S
Cosmos 1340 Rocket 4.1 23:47:47 10° N 23:51:18 33° ENE 23:53:20 20° ESE
GP-B 4.1 23:50:34 10° NNW 23:54:31 34° W 23:56:01 27° WSW
Cosmos 1842 Rocket 3.5 23:53:33 42° S 23:54:58 77° E 23:59:24 10° NNE
